Weather History for Fort Leonard Wood, MO

Change the Weather History Date:

Sunday, January 22, 2012

  Actual Average Record
Temperature  
Mean Temperature 41 °F -  
Max Temperature 54 °F 39 °F 64 °F (2009)
Min Temperature 28 °F 25 °F 14 °F (2003)
Degree Days  
Heating Degree Days 24    
Moisture  
Dew Point 38 °F    
Average Humidity 97    
Maximum Humidity 100    
Minimum Humidity 73    
Precipitation  
Precipitation 0.00 in - - ()
Sea Level Pressure  
Sea Level Pressure 29.71 in    
Wind  
Wind Speed 14 mph (SSE)    
Max Wind Speed 22 mph    
Max Gust Speed 32 mph    
Visibility 6 miles    
Events      
Averages and records for this station are not official NWS values.
T = Trace of Precipitation, MM = Missing Value Source: NWS Daily Summary

Daily Weather History Graph

Daily Weather History Graph

Search for Another Location

Airport:

Trip Planner

Search our weather history database for the weather conditions in past years. The results will help you decide how hot, cold, wet, or windy it might be!

Date:

Astronomy

Jan. 22, 2012 Rise Set
Actual Time 7:19 AM CST 5:20 PM CST
Civil Twilight 6:51 AM CST 5:48 PM CST
Nautical Twilight 6:19 AM CST 6:20 PM CST
Astronomical Twilight 5:48 AM CST 6:52 PM CST
Moon 6:36 AM CST (1/22) 5:02 PM CST (1/22)
Length of Visible Light 10h 57m
Length of Day
10h 00m
Waning Crescent, 0% of the Moon is Illuminated
Jan 22
Waning Crescent
Jan 23
New
Jan 30
First Quarter
Feb 7
Full
Feb 14
Last Quarter

Hourly Weather History & Observations

Time (CST) Temp. Windchill Dew Point Humidity Pressure Visibility Wind Dir Wind Speed Gust Speed Precip Events Conditions
12:03 AM 28.4 °F 17.0 °F 26.6 °F 93% 29.93 in 10.0 mi SSE 15.0 mph - N/A   Overcast
12:55 AM 28.9 °F 18.6 °F 27.5 °F 94% 29.91 in 10.0 mi SSE 12.7 mph 24.2 mph N/A   Overcast
1:12 AM 28.4 °F 19.7 °F 28.4 °F 100% 29.90 in 10.0 mi SSE 9.2 mph 20.7 mph N/A   Overcast
1:42 AM 30.2 °F 22.6 °F 28.4 °F 93% 29.91 in 10.0 mi SSE 8.1 mph 19.6 mph N/A   Overcast
1:55 AM 29.5 °F 21.1 °F 28.6 °F 96% 29.91 in 10.0 mi SSE 9.2 mph - N/A   Overcast
2:13 AM 30.2 °F 20.8 °F 28.4 °F 93% 29.91 in 10.0 mi SSE 11.5 mph - N/A   Overcast
2:42 AM 30.2 °F 21.3 °F 30.2 °F 100% 29.90 in 6.0 mi SSE 10.4 mph - N/A   Overcast
2:55 AM 29.8 °F 19.8 °F 29.7 °F 99% 29.90 in 4.0 mi SSE 12.7 mph - N/A   Overcast
3:04 AM 30.2 °F 20.2 °F 30.2 °F 100% 29.89 in 3.0 mi SSE 12.7 mph - N/A   Overcast
3:14 AM 30.2 °F 20.2 °F 30.2 °F 100% 29.88 in 2.5 mi SE 12.7 mph - N/A   Overcast
3:25 AM 30.2 °F 19.3 °F 30.2 °F 100% 29.87 in 2.0 mi SE 15.0 mph - N/A   Light Freezing Drizzle
3:27 AM 30.2 °F 20.2 °F 30.2 °F 100% 29.87 in 2.0 mi SE 12.7 mph - N/A   Light Freezing Drizzle
3:38 AM 30.2 °F 20.2 °F 30.2 °F 100% 29.86 in 1.8 mi SE 12.7 mph - N/A   Light Freezing Drizzle
3:44 AM 30.2 °F 19.3 °F 30.2 °F 100% 29.86 in 2.0 mi SE 15.0 mph - N/A   Light Freezing Drizzle
3:48 AM 30.2 °F 19.3 °F 30.2 °F 100% 29.85 in 2.0 mi SE 15.0 mph - N/A   Overcast
3:55 AM 30.2 °F 19.8 °F 30.0 °F 99% 29.85 in 2.0 mi SSE 13.8 mph - 0.00 in   Overcast
3:57 AM 30.2 °F 20.2 °F 30.2 °F 100% 29.85 in 2.5 mi SE 12.7 mph - N/A   Light Freezing Drizzle
4:14 AM 30.2 °F 19.3 °F 30.2 °F 100% 29.85 in 2.5 mi SSE 15.0 mph 21.9 mph N/A   Overcast
4:17 AM 30.2 °F 19.8 °F 30.2 °F 100% 29.85 in 3.0 mi SSE 13.8 mph - N/A   Overcast
4:37 AM 30.2 °F 21.9 °F 30.2 °F 100% 29.85 in 4.0 mi SSE 9.2 mph - N/A   Overcast
4:55 AM 30.7 °F 22.6 °F 30.6 °F 99% 29.84 in 4.0 mi SSE 9.2 mph - 0.00 in   Overcast
5:15 AM 30.2 °F 20.8 °F 30.2 °F 100% 29.84 in 3.0 mi SE 11.5 mph - N/A   Overcast
5:22 AM 30.2 °F 20.2 °F 30.2 °F 100% 29.83 in 2.5 mi SE 12.7 mph - N/A   Overcast
5:55 AM 31.1 °F 21.4 °F 30.9 °F 99% 29.82 in 2.0 mi SE 12.7 mph - N/A   Overcast
6:12 AM 32.0 °F 22.1 °F 30.2 °F 93% 29.80 in 1.8 mi SE 13.8 mph - N/A   Overcast
6:32 AM 32.0 °F 21.6 °F 32.0 °F 100% 29.79 in 1.5 mi SSE 15.0 mph - N/A   Light Freezing Drizzle
6:50 AM 32.0 °F 22.1 °F 32.0 °F 100% 29.78 in 1.5 mi SSE 13.8 mph 20.7 mph N/A   Overcast
6:55 AM 32.2 °F 24.4 °F 32.0 °F 99% 29.79 in 1.5 mi SSE 9.2 mph 20.7 mph 0.00 in   Overcast
6:57 AM 32.0 °F 24.2 °F 32.0 °F 100% 29.79 in 1.8 mi SSE 9.2 mph - N/A   Overcast
7:15 AM 32.0 °F 22.1 °F 32.0 °F 100% 29.77 in 1.5 mi SSE 13.8 mph 20.7 mph N/A   Overcast
7:18 AM 32.0 °F 22.1 °F 32.0 °F 100% 29.77 in 1.2 mi SSE 13.8 mph 20.7 mph N/A   Overcast
7:22 AM 32.0 °F 21.6 °F 32.0 °F 100% 29.77 in 1.0 mi SSE 15.0 mph - N/A   Mist
7:24 AM 32.0 °F 22.5 °F 32.0 °F 100% 29.77 in 1.0 mi SSE 12.7 mph - N/A   Mist
7:30 AM 33.8 °F 23.9 °F 32.0 °F 93% 29.76 in 1.0 mi SSE 15.0 mph 23.0 mph N/A   Mist
7:32 AM 33.8 °F 23.5 °F 32.0 °F 93% 29.76 in 1.2 mi SSE 16.1 mph 23.0 mph N/A   Overcast
7:39 AM 33.8 °F 24.8 °F 33.8 °F 100% 29.76 in 1.5 mi SSE 12.7 mph 23.0 mph N/A   Overcast
7:55 AM 33.8 °F 25.3 °F 33.6 °F 99% 29.76 in 1.5 mi South 11.5 mph - N/A   Overcast
8:13 AM 33.8 °F 24.3 °F 33.8 °F 100% 29.75 in 1.8 mi SSE 13.8 mph - N/A   Overcast
8:22 AM 33.8 °F 23.5 °F 33.8 °F 100% 29.75 in 1.5 mi SSE 16.1 mph 23.0 mph N/A   Overcast
8:38 AM 35.6 °F 24.5 °F 35.6 °F 100% 29.74 in 1.5 mi SSE 20.7 mph 32.2 mph N/A   Overcast
8:45 AM 35.6 °F 24.5 °F 35.6 °F 100% 29.74 in 1.2 mi SSE 20.7 mph 27.6 mph N/A   Overcast
8:47 AM 35.6 °F 24.8 °F 35.6 °F 100% 29.74 in 1.5 mi SSE 19.6 mph 27.6 mph N/A   Overcast
8:52 AM 35.6 °F 24.2 °F 35.6 °F 100% 29.74 in 1.8 mi SSE 21.9 mph 27.6 mph N/A   Overcast
8:55 AM 35.6 °F 25.2 °F 35.4 °F 99% 29.74 in 2.0 mi SSE 18.4 mph 27.6 mph N/A   Overcast
9:09 AM 35.6 °F 26.2 °F 35.6 °F 100% 29.75 in 3.0 mi SSE 15.0 mph 26.5 mph N/A   Overcast
9:19 AM 35.6 °F 25.5 °F 35.6 °F 100% 29.75 in 3.0 mi SSE 17.3 mph 27.6 mph N/A   Overcast
9:55 AM 37.6 °F 28.1 °F 37.4 °F 99% 29.74 in 6.0 mi SSE 17.3 mph 26.5 mph N/A   Overcast
10:31 AM 39.2 °F 30.2 °F 39.2 °F 100% 29.72 in 10.0 mi SSE 17.3 mph 28.8 mph N/A   Overcast
10:55 AM 40.6 °F 32.0 °F 40.3 °F 99% 29.71 in 10.0 mi SSE 17.3 mph 25.3 mph N/A   Overcast
11:30 AM 42.8 °F 35.4 °F 41.0 °F 93% 29.68 in 10.0 mi SSE 15.0 mph 24.2 mph N/A   Overcast
11:56 AM 44.6 °F 37.8 °F 42.8 °F 93% 29.66 in 10.0 mi SSE 15.0 mph 25.3 mph N/A   Overcast
12:14 PM 46.4 °F 39.8 °F 44.6 °F 93% 29.65 in 10.0 mi South 16.1 mph 24.2 mph N/A   Overcast
12:20 PM 46.4 °F 40.1 °F 44.6 °F 93% 29.64 in 10.0 mi South 15.0 mph 26.5 mph N/A   Overcast
12:55 PM 47.5 °F - 45.3 °F 92% 29.62 in 10.0 mi South 16.1 mph 31.1 mph N/A   Overcast
12:58 PM 48.2 °F - 46.4 °F 93% 29.62 in 10.0 mi South 19.6 mph 31.1 mph N/A   Overcast
1:54 PM 50.0 °F - 46.4 °F 87% 29.58 in 10.0 mi South 16.1 mph 23.0 mph N/A   Overcast
1:55 PM 50.4 °F - 47.1 °F 89% 29.59 in 10.0 mi SSE 15.0 mph 23.0 mph N/A   Overcast
2:04 PM 50.0 °F - 48.2 °F 94% 29.58 in 10.0 mi SSE 16.1 mph 31.1 mph N/A   Overcast
2:37 PM 50.0 °F - 48.2 °F 94% 29.59 in 10.0 mi South 12.7 mph - N/A   Overcast
2:55 PM 49.3 °F - 48.2 °F 96% 29.57 in 10.0 mi SSE 16.1 mph 25.3 mph N/A   Overcast
3:00 PM 50.0 °F - 48.2 °F 94% 29.57 in 10.0 mi SSE 15.0 mph 25.3 mph N/A   Overcast
3:32 PM 50.0 °F - 48.2 °F 94% 29.55 in 10.0 mi SSE 18.4 mph 29.9 mph N/A   Overcast
3:46 PM 48.2 °F - 48.2 °F 100% 29.55 in 7.0 mi SSE 13.8 mph 23.0 mph N/A   Overcast
3:55 PM 48.9 °F - 48.6 °F 99% 29.55 in 8.0 mi SSE 17.3 mph 24.2 mph N/A   Overcast
3:56 PM 48.2 °F - 48.2 °F 100% 29.55 in 8.0 mi SSE 16.1 mph 24.2 mph N/A   Overcast
4:03 PM 48.2 °F - 48.2 °F 100% 29.55 in 9.0 mi SSE 15.0 mph 21.9 mph N/A   Overcast
4:55 PM 48.2 °F - 48.2 °F 100% 29.55 in 10.0 mi SSE 15.0 mph - N/A   Overcast
5:20 PM 48.2 °F - 48.2 °F 100% 29.53 in 10.0 mi SSE 17.3 mph 24.2 mph N/A   Overcast
5:27 PM 48.2 °F - 48.2 °F 100% 29.53 in 10.0 mi SSE 13.8 mph 24.2 mph N/A   Overcast
5:33 PM 48.2 °F - 48.2 °F 100% 29.54 in 10.0 mi SSE 13.8 mph 20.7 mph N/A   Overcast
5:55 PM 49.5 °F - 49.5 °F 100% 29.54 in 10.0 mi SSE 16.1 mph 25.3 mph N/A   Overcast
6:04 PM 50.0 °F - 50.0 °F 100% 29.53 in 10.0 mi South 13.8 mph 26.5 mph N/A   Overcast
6:18 PM 51.8 °F - 51.8 °F 100% 29.55 in 10.0 mi South 17.3 mph 28.8 mph N/A   Overcast
6:28 PM 51.8 °F - 51.8 °F 100% 29.55 in 10.0 mi South 13.8 mph 25.3 mph N/A   Overcast
6:44 PM 53.6 °F - 51.8 °F 94% 29.55 in 10.0 mi South 11.5 mph 25.3 mph N/A   Overcast
6:55 PM 53.2 °F - 51.6 °F 94% 29.55 in 10.0 mi SSW 12.7 mph 24.2 mph N/A   Overcast
7:12 PM 53.6 °F - 51.8 °F 94% 29.54 in 10.0 mi SSW 9.2 mph 19.6 mph N/A   Overcast
7:55 PM 52.3 °F - 50.2 °F 92% 29.49 in 10.0 mi Variable 6.9 mph - N/A   Partly Cloudy
8:55 PM 51.3 °F - 49.5 °F 94% 29.47 in 10.0 mi SSE 10.4 mph - N/A   Scattered Clouds
9:55 PM 54.7 °F - 48.4 °F 79% 29.46 in 10.0 mi SSW 10.4 mph 20.7 mph N/A   Clear
10:55 PM 54.3 °F - 48.0 °F 79% 29.44 in 10.0 mi SSW 9.2 mph - N/A   Clear
11:55 PM 54.1 °F - 45.5 °F 73% 29.46 in 10.0 mi SW 11.5 mph 24.2 mph N/A   Clear